Location: Ermatingen
(47.6706°N, 9.0857°E)
Time: 08:23:25
(UTC+00:00)

Cosmos 1428 Rocket - Pass Details

Date: 04 December 2021
Orbit: 949 x 987 km, 82.9° (Epoch: 26 January)

Event Time Altitude Azimuth Distance (km) Brightness Sun altitude
Rises 16:51:54 0° 351° (N) 3,635 7.4 -12.8°
Reaches altitude 10° 16:54:23 10° 352° (N) 2,688 6.7 -13.2°
Maximum altitude 17:00:33 86° 81° (E) 964 4.4 -14.1°
Drops below altitude 10° 17:06:43 10° 172° (S) 2,689 6.9 -15.1°
Sets 17:09:13 0° 172° (S) 3,636 7.6 -15.5°
